This demonstration page uses our WeatherBlox Daily Observations layout. Learn more.

Left ArrowRight Arrow

30.21309, -93.2044

Hourly Observations for July 20, 2021

Temp ( °F °C ) Dew Point ( °F °C ) Humidity (%) Winds ( mph kmh ) Pressure ( in mb ) Visibility ( mi km ) Precip ( " mm )
12:15 am 00:15 Partly Cloudy with Nearby Thunderstorms 76 24.6 74 23.6 94 94 Calm 29.98 1015 10 16 0.00 0.00
12:35 am 00:35 Partly Cloudy 76 24.6 74 23.6 94 94 Calm 29.97 1015 10 16 0.00 0.00
12:55 am 00:55 Partly Cloudy with Nearby Thunderstorms 76 24.5 74 23.6 95 95 NNE 3 6 29.95 1014 10 16 0.00 0.00
1:15 am 01:15 Mostly Cloudy with Nearby Thunderstorms 76 24.6 74 23.6 94 94 Calm 29.95 1014 10 16 0.00 0.00
1:35 am 01:35 Mostly Cloudy 76 24.7 75 23.8 95 95 E 3 6 29.94 1014 10 16 0.00 0.00
1:55 am 01:55 Cloudy with Light Rain 76 24.4 74 23.5 95 95 E 3 6 29.94 1014 4 6 0.00 0.00
2:15 am 02:15 Cloudy 76 24.4 74 23.2 93 93 ENE 5 7 29.93 1014 10 16 0.00 0.00
2:35 am 02:35 Cloudy with Nearby Thunderstorms 76 24.5 74 23.3 93 93 E 5 7 29.93 1014 10 16 0.00 0.00
2:55 am 02:55 Cloudy with Nearby Thunderstorms 75 24.1 73 22.6 91 91 E 5 7 29.92 1013 10 16 0.00 0.00
3:15 am 03:15 Cloudy with Mist and Fog 75 23.9 73 22.7 93 93 E 5 7 29.91 1013 7 11 0.06 1.52
3:35 am 03:35 Cloudy with Thunderstorms 75 24 73 22.9 94 94 SE 3 6 29.92 1013 10 16 0.06 1.52
3:55 am 03:55 Cloudy with Strong Thunderstorms 74 23.3 71 21.8 91 91 W 10 17 29.94 1014 3 4 0.43 10.92
4:15 am 04:15 Cloudy with Strong Thunderstorms 73 22.9 69 20.8 88 88 W 8 13 29.91 1013 10 16 0.05 1.27
4:35 am 04:35 Mostly Cloudy with Thunderstorms 72 22.4 69 20.7 90 90 SSW 6 9 29.90 1013 10 16 0.06 1.52
4:55 am 04:55 Mostly Cloudy with Thunderstorms 73 22.6 69 20.7 89 89 SSW 5 7 29.91 1013 10 16 0.10 2.54
5:15 am 05:15 Cloudy 72 22.1 70 20.9 93 93 S 7 11 29.92 1013 10 16 0.02 0.51
5:35 am 05:35 Cloudy 72 22.1 69 20.8 92 92 S 6 9 29.92 1013 10 16 0.02 0.51
6:00 am 06:00 Mostly Cloudy 73 23 70 21 89 89 SSW 6 9 29.93 1014 10 16 0.00 0.00
7:47 am 07:47 Cloudy 73 23 72 22 94 94 SSE 6 9 29.92 1013 10 16 0.00 0.00
8:50 am 08:50 Cloudy 75 24 73 23 94 94 Calm 29.94 1014 10 16 0.00 0.00
9:45 am 09:45 Cloudy with Light Rain 77 25 73 23 89 89 WNW 8 13 29.95 1014 6 10 0.00 0.00
10:53 am 10:53 Mostly Cloudy 77 25 73 23 89 89 NW 8 13 29.95 1014 10 16 0.00 0.00
11:55 am 11:55 Cloudy 77 25 73 23 89 89 NNW 8 13 29.96 1015 10 16 0.00 0.00
12:45 pm 12:45 Cloudy 79 26 73 23 84 84 NNW 8 13 29.95 1014 10 16 0.00 0.00
1:47 pm 13:47 Cloudy 81 27 73 23 79 79 NNW 8 13 29.93 1014 10 16 0.00 0.00
2:55 pm 14:55 Mostly Cloudy 82 28 73 23 74 74 NNW 7 11 29.91 1013 10 16 0.00 0.00
4:51 pm 16:51 Mostly Cloudy 81 27 73 23 79 79 NE 9 15 29.89 1012 10 16 0.00 0.00
5:56 pm 17:56 Partly Cloudy 82 28 73 23 74 74 ENE 8 13 29.88 1012 10 16 0.00 0.00
6:46 pm 18:46 Partly Cloudy 82 28 72 22 70 70 NNE 6 9 29.87 1011 10 16 0.00 0.00
7:55 pm 19:55 Mostly Sunny 81 27 73 23 79 79 ENE 6 9 29.89 1012 10 16 0.00 0.00
8:54 pm 20:54 Mostly Clear 79 26 73 23 84 84 Calm 29.90 1013 10 16 0.00 0.00
9:45 pm 21:45 Mostly Clear 79 26 73 23 84 84 Calm 29.91 1013 10 16 0.00 0.00
10:15 pm 22:15 Clear 77 25.2 74 23.1 88 88 Calm 29.92 1013 10 16 0.00 0.00
10:35 pm 22:35 Clear 77 25.2 73 23 88 88 Calm 29.93 1014 10 16 0.00 0.00
10:55 pm 22:55 Clear 77 25.1 73 22.9 88 88 Calm 29.93 1014 10 16 0.00 0.00
11:15 pm 23:15 Clear 77 25 73 22.8 88 88 Calm 29.93 1014 10 16 0.00 0.00
11:35 pm 23:35 Clear 76 24.7 73 22.9 90 90 Calm 29.94 1014 10 16 0.00 0.00
11:55 pm 23:55 Clear 77 24.8 73 22.9 89 89 Calm 29.94 1014 10 16 0.00 0.00

Powered by AerisWeather